Weather History for KUIL - December, 2011

Change the Weather History Date:

Thursday, December 29, 2011

  Actual Average Record
Temperature  
Mean Temperature 43 °F 40 °F  
Max Temperature 49 °F 46 °F 54 °F (1980)
Min Temperature 37 °F 35 °F 12 °F (1968)
Degree Days  
Heating Degree Days 22 25  
Month to date heating degree days 717  
Since 1 July heating degree days 2431  
Cooling Degree Days 0 0  
Month to date cooling degree days 0  
Year to date cooling degree days 19  
Moisture  
Dew Point 42 °F    
Average Humidity 93    
Maximum Humidity 100    
Minimum Humidity 86    
Precipitation  
Precipitation 0.21 in 0.40 in 3.09 in (1974)
Month to date precipitation 12.19  
Year to date precipitation 98.74  
Sea Level Pressure  
Sea Level Pressure 29.77 in    
Wind  
Wind Speed 7 mph (South)    
Max Wind Speed 20 mph    
Max Gust Speed 28 mph    
Visibility 7 miles    
Events Rain    
T = Trace of Precipitation, MM = Missing Value Source: NWS Daily Summary

Daily Weather History Graph

Daily Weather History Graph

Search for Another Location

Airport or City:

Trip Planner

Search our weather history database for the weather conditions in past years. The results will help you decide how hot, cold, wet, or windy it might be!

Date:

Astronomy

Dec. 29, 2011 Rise Set
Actual Time 8:07 AM PST 4:33 PM PST
Civil Twilight 7:31 AM PST 5:09 PM PST
Nautical Twilight 6:51 AM PST 5:48 PM PST
Astronomical Twilight 6:14 AM PST 6:26 PM PST
Moon 10:39 AM PST (12/29) 10:42 PM PST (12/29)
Length of Visible Light 9h 37m
Length of Day
8h 25m
Waxing Crescent, 27% of the Moon is Illuminated
Dec 29
Waxing Crescent
Dec 31
First Quarter
Jan 8
Full
Jan 16
Last Quarter
Jan 22
New

Hourly Weather History & Observations

Time (PST) Temp. Windchill Dew Point Humidity Pressure Visibility Wind Dir Wind Speed Gust Speed Precip Events Conditions
12:00 AM - - - N/A% - - North - - N/A   Unknown
12:37 AM 44.6 °F 39.7 °F 42.8 °F 93% 29.88 in 10.0 mi West 9.2 mph - 0.00 in   Mostly Cloudy
12:53 AM 45.0 °F 40.6 °F 43.0 °F 93% 29.89 in 10.0 mi West 8.1 mph 17.3 mph 0.00 in   Overcast
1:53 AM 43.0 °F 38.2 °F 41.0 °F 93% 29.93 in 10.0 mi WSW 8.1 mph - 0.00 in   Scattered Clouds
2:17 AM 44.6 °F 40.2 °F 42.8 °F 93% 29.95 in 10.0 mi WSW 8.1 mph - N/A   Mostly Cloudy
2:42 AM 44.6 °F 41.4 °F 41.0 °F 87% 29.96 in 10.0 mi West 5.8 mph - N/A   Mostly Cloudy
2:53 AM 45.0 °F 41.2 °F 41.0 °F 86% 29.96 in 10.0 mi WSW 6.9 mph - N/A   Mostly Cloudy
3:06 AM 44.6 °F 43.1 °F 41.0 °F 87% 29.97 in 10.0 mi West 3.5 mph - N/A   Overcast
3:45 AM 42.8 °F - 41.0 °F 93% 30.00 in 10.0 mi Calm Calm - N/A   Overcast
3:53 AM 43.0 °F 41.3 °F 41.0 °F 93% 30.00 in 10.0 mi SW 3.5 mph - N/A   Overcast
4:15 AM 42.8 °F - 41.0 °F 93% 30.02 in 10.0 mi Calm Calm - N/A   Overcast
4:38 AM 42.8 °F - 41.0 °F 93% 30.01 in 10.0 mi Calm Calm - N/A   Overcast
4:53 AM 41.0 °F - 39.9 °F 96% 30.02 in 8.0 mi Calm Calm - N/A   Mostly Cloudy
5:53 AM 39.9 °F - 39.0 °F 97% 30.03 in 6.0 mi Calm Calm - N/A   Scattered Clouds
6:53 AM 39.9 °F - 39.0 °F 97% 30.02 in 5.0 mi Calm Calm - N/A   Mostly Cloudy
7:04 AM 39.2 °F - 39.2 °F 100% 30.01 in 7.0 mi Calm Calm - N/A   Scattered Clouds
7:53 AM 37.9 °F - 37.9 °F 100% 30.02 in 5.0 mi Calm Calm - N/A   Clear
8:53 AM 39.9 °F - 39.0 °F 97% 30.04 in 4.0 mi Calm Calm - N/A   Mostly Cloudy
9:53 AM 42.1 °F 40.2 °F 39.9 °F 92% 30.02 in 10.0 mi East 3.5 mph - N/A   Mostly Cloudy
10:53 AM 43.0 °F 40.3 °F 41.0 °F 93% 30.01 in 10.0 mi SE 4.6 mph - N/A   Overcast
11:53 AM 44.1 °F 39.0 °F 41.0 °F 89% 29.94 in 10.0 mi SSE 9.2 mph 16.1 mph 0.00 in Rain Light Rain
12:53 PM 44.1 °F 40.1 °F 41.0 °F 89% 29.89 in 10.0 mi SE 6.9 mph - 0.00 in   Overcast
1:53 PM 43.0 °F 37.7 °F 41.0 °F 93% 29.83 in 5.0 mi SE 9.2 mph - 0.04 in Rain Light Rain
2:05 PM 42.8 °F 37.5 °F 41.0 °F 93% 29.81 in 5.0 mi SE 9.2 mph - 0.01 in Rain Light Rain
2:53 PM 43.0 °F 36.8 °F 41.0 °F 93% 29.76 in 6.0 mi ESE 11.5 mph - 0.04 in Rain Light Rain
3:13 PM 42.8 °F 36.6 °F 41.0 °F 93% 29.74 in 8.0 mi ESE 11.5 mph - 0.01 in Rain Light Rain
3:53 PM 42.1 °F 36.6 °F 39.9 °F 92% 29.70 in 8.0 mi ESE 9.2 mph - 0.01 in Rain Light Rain
4:03 PM 42.8 °F 37.0 °F 39.2 °F 87% 29.68 in 4.0 mi East 10.4 mph - 0.00 in Rain Light Rain
4:15 PM 42.8 °F 38.6 °F 39.2 °F 87% 29.68 in 2.5 mi East 6.9 mph - 0.01 in Rain Light Rain
4:21 PM 42.8 °F 38.0 °F 39.2 °F 87% 29.67 in 3.0 mi East 8.1 mph - 0.01 in Rain Light Rain
4:53 PM 42.1 °F 38.4 °F 39.9 °F 92% 29.64 in 10.0 mi East 5.8 mph - 0.02 in   Overcast
5:53 PM 43.0 °F 38.2 °F 41.0 °F 93% 29.56 in 8.0 mi ESE 8.1 mph - 0.00 in   Overcast
6:53 PM 46.0 °F 41.9 °F 43.0 °F 89% 29.51 in 10.0 mi SSE 8.1 mph 16.1 mph N/A   Overcast
7:53 PM 48.0 °F - 46.0 °F 93% 29.49 in 10.0 mi South 16.1 mph 25.3 mph N/A   Overcast
8:20 PM 48.2 °F - 46.4 °F 93% 29.47 in 2.0 mi South 11.5 mph 21.9 mph 0.01 in Rain Light Rain
8:53 PM 48.0 °F - 46.9 °F 96% 29.49 in 1.5 mi SSW 12.7 mph 21.9 mph 0.03 in Rain Light Rain
9:07 PM 48.2 °F - 48.2 °F 100% 29.49 in 1.5 mi SSW 10.4 mph 21.9 mph 0.02 in Rain Light Rain
9:15 PM 48.2 °F - 48.2 °F 100% 29.49 in 1.2 mi South 11.5 mph 20.7 mph 0.04 in Rain Light Rain
9:30 PM 48.2 °F - 48.2 °F 100% 29.50 in 2.0 mi SW 18.4 mph 27.6 mph 0.06 in Rain Light Rain
9:40 PM 48.2 °F - 48.2 °F 100% 29.50 in 6.0 mi WSW 12.7 mph 23.0 mph 0.07 in   Overcast
9:53 PM 48.9 °F - 46.9 °F 93% 29.50 in 8.0 mi SW 12.7 mph 26.5 mph 0.07 in   Overcast
10:46 PM 48.2 °F - 46.4 °F 93% 29.52 in 8.0 mi WSW 13.8 mph 23.0 mph N/A   Overcast
10:53 PM 48.0 °F - 46.9 °F 96% 29.52 in 7.0 mi SW 10.4 mph 18.4 mph N/A   Overcast
11:01 PM 48.2 °F - 46.4 °F 93% 29.52 in 7.0 mi SW 9.2 mph 17.3 mph N/A   Overcast
11:32 PM 48.2 °F - 46.4 °F 93% 29.53 in 7.0 mi WSW 12.7 mph 20.7 mph N/A   Overcast
11:53 PM 48.0 °F - 46.0 °F 93% 29.54 in 7.0 mi SW 9.2 mph - N/A   Overcast